User: anonymous   Login
Location: Homewood
(41.1836°S, 175.9581°E)
Time: 21:00:26
(UTC+00:00)
Language:

SL-4 R/B - Orbit

View from above orbital plane
View from above orbital plane
View from above satellite
View from above satellite

Ground track
Ground track

The orbit data is extracted from the following two-line orbital elements,

1 39679U 14021B   24165.35269901  .00012066  00000-0  44729-3 0  9999
2 39679  51.6082 147.1111 0137161 344.5877  15.0941 15.19625141559184
Epoch (UTC): 13 June 2024 08:27:53
Eccentricity: 0.0137161
inclination: 51.6082°
perigee height: 412 km
apogee height: 601 km
right ascension of ascending node: 147.1111°
argument of perigee: 344.5877°
revolutions per day: 15.19625141
mean anomaly at epoch: 15.0941°
orbit number at epoch: 55918

The dashed part of the orbit path shows where the satellite is in the earth's shadow,  

DLR